New York Downtown Manhattan/w, NY

7:49 AM EDT on August 19, 2019 (GMT -0400)
New York Downtown Manhattan/w

Weather History for KJRB - June, 2019

Change the Weather History Date:

Thursday, June 13, 2019

  Actual Average (KEWR) Record (KEWR)
Temperature  
Mean Temperature 62 °F -  
Max Temperature 68 °F 78 °F 99 °F (2017)
Min Temperature 57 °F 62 °F 51 °F (1950)
Degree Days  
Heating Degree Days 2    
Growing Degree Days 12 (Base 50)    
Moisture  
Dew Point 57 °F    
Average Humidity 81    
Maximum Humidity 94    
Minimum Humidity 68    
Precipitation  
Precipitation 0.61 in - - ()
Sea Level Pressure  
Sea Level Pressure 29.84 in    
Wind  
Wind Speed 10 mph ()    
Max Wind Speed 26 mph    
Max Gust Speed 38 mph    
Visibility 7.9 miles    
Events Rain    
Averages and records for this station are not official NWS values.
T = Trace of Precipitation, MM = Missing Value Source: Averaged Metar Reports

Daily Weather History Graph

Daily Weather History Graph

Search for Another Location

Airport or City:

Astronomy

Jun. 13, 2019 Rise Set
Actual Time 5:24 AM EDT 8:28 PM EDT
Civil Twilight 4:51 AM EDT 9:01 PM EDT
Nautical Twilight 4:08 AM EDT 9:43 PM EDT
Astronomical Twilight 3:18 AM EDT 10:33 PM EDT
Moon 4:38 PM EDT (6/13) 3:09 AM EDT (6/13)
Length of Visible Light 16h 10m
Length of Day
15h 03m
Waxing Gibbous, 85% of the Moon is Illuminated
Jun 13
Waxing Gibbous
Jun 17
Full
Jun 25
Last Quarter
Jul 2
New
Jul 9
First Quarter

Hourly Weather History & Observations

Time (EDT) Temp. Dew Point Humidity Pressure Visibility Wind Dir Wind Speed Gust Speed Precip Events Conditions
12:56 AM 64.0 °F 55.0 °F 73% 30.08 in 10.0 mi Variable 3.5 mph - N/A   Clear
1:56 AM 64.0 °F 55.0 °F 73% 30.04 in 10.0 mi ENE 6.9 mph 17.3 mph N/A   Clear
2:56 AM 64.0 °F 55.0 °F 73% 30.02 in 10.0 mi East 8.1 mph - N/A   Mostly Cloudy
3:56 AM 64.0 °F 55.9 °F 75% 29.97 in 10.0 mi NE 11.5 mph - N/A   Clear
4:56 AM 64.0 °F 55.0 °F 73% 29.94 in 10.0 mi NE 11.5 mph - N/A   Clear
5:56 AM 64.0 °F 55.0 °F 73% 29.93 in 10.0 mi NNE 11.5 mph - N/A   Overcast
6:56 AM 64.0 °F 55.9 °F 75% 29.92 in 10.0 mi ENE 10.4 mph - N/A   Overcast
7:56 AM 63.0 °F 57.9 °F 84% 29.90 in 10.0 mi NE 11.5 mph 21.9 mph 0.00 in   Overcast
8:28 AM 62.6 °F 59.0 °F 88% 29.94 in 2.5 mi Calm Calm - 0.05 in Rain Light Rain
8:43 AM 62.6 °F 57.2 °F 82% 29.93 in 1.2 mi NE 9.2 mph - 0.09 in   Overcast
8:56 AM 61.0 °F 57.0 °F 87% 29.91 in 2.0 mi NE 11.5 mph - 0.13 in   Overcast
9:07 AM 60.8 °F 57.2 °F 88% 29.92 in 4.0 mi NE 9.2 mph 18.4 mph 0.02 in   Overcast
9:25 AM 60.8 °F 57.2 °F 88% 29.91 in 2.5 mi NE 10.4 mph - 0.05 in   Overcast
9:41 AM 60.8 °F 57.2 °F 88% 29.91 in 7.0 mi Variable 6.9 mph - 0.07 in   Overcast
9:56 AM 60.1 °F 57.0 °F 90% 29.88 in 2.5 mi NE 18.4 mph 21.9 mph 0.10 in   Overcast
10:05 AM 59.0 °F 55.4 °F 88% 29.86 in 1.8 mi NNE 19.6 mph 28.8 mph 0.03 in   Overcast
10:14 AM 57.2 °F 55.4 °F 94% 29.84 in 2.0 mi NE 19.6 mph 25.3 mph 0.05 in   Overcast
10:33 AM 57.2 °F 55.4 °F 94% 29.82 in 5.0 mi NE 19.6 mph 25.3 mph 0.09 in   Overcast
10:56 AM 60.1 °F 55.9 °F 86% 29.81 in 10.0 mi NE 21.9 mph 26.5 mph 0.11 in Rain Light Rain
11:56 AM 60.1 °F 57.0 °F 90% 29.79 in 7.0 mi NE 21.9 mph 27.6 mph 0.02 in Rain Light Rain
12:11 PM 60.8 °F 57.2 °F 88% 29.79 in 4.0 mi NE 19.6 mph - 0.00 in Rain Light Rain
12:43 PM 60.8 °F 57.2 °F 88% 29.76 in 7.0 mi NE 21.9 mph 29.9 mph 0.01 in Rain Light Rain
12:51 PM 60.8 °F 57.2 °F 88% 29.75 in 10.0 mi NE 24.2 mph 34.5 mph 0.01 in   Overcast
12:56 PM 61.0 °F 57.0 °F 87% 29.75 in 10.0 mi NE 19.6 mph 34.5 mph 0.01 in   Overcast
1:32 PM 62.6 °F 55.4 °F 77% 29.74 in 10.0 mi NE 23.0 mph 38.0 mph N/A   Mostly Cloudy
1:51 PM 64.4 °F 55.4 °F 73% 29.74 in 10.0 mi NE 26.5 mph 33.4 mph N/A   Scattered Clouds
1:56 PM 64.0 °F 55.0 °F 73% 29.74 in 10.0 mi NE 26.5 mph 33.4 mph N/A   Scattered Clouds
2:56 PM 66.9 °F 57.0 °F 70% 29.74 in 10.0 mi NE 17.3 mph 23.0 mph N/A   Mostly Cloudy
3:56 PM 66.9 °F 55.9 °F 68% 29.75 in 10.0 mi NE 9.2 mph - N/A   Overcast
4:52 PM 66.2 °F 57.2 °F 73% 29.75 in 10.0 mi ENE 6.9 mph - N/A   Overcast
4:56 PM 66.9 °F 57.9 °F 73% 29.75 in 10.0 mi East 5.8 mph - N/A   Overcast
5:15 PM 68.0 °F 57.2 °F 68% 29.75 in 10.0 mi ENE 4.6 mph - N/A   Overcast
5:56 PM 66.0 °F 55.9 °F 70% 29.76 in 10.0 mi Calm Calm - N/A   Overcast
6:35 PM 66.2 °F 57.2 °F 73% 29.75 in 10.0 mi Calm Calm - N/A   Overcast
6:56 PM 66.9 °F 57.9 °F 73% 29.75 in 10.0 mi NE 3.5 mph - N/A   Overcast
7:53 PM 66.2 °F 57.2 °F 73% 29.76 in 10.0 mi Calm Calm - N/A   Overcast
7:56 PM 66.0 °F 57.9 °F 75% 29.76 in 10.0 mi SSW 3.5 mph - N/A   Overcast
8:56 PM 64.9 °F 57.0 °F 75% 29.78 in 10.0 mi ESE 4.6 mph - N/A   Overcast
9:56 PM 62.1 °F 59.0 °F 90% 29.81 in 6.0 mi SE 4.6 mph - 0.19 in Rain Light Rain
10:22 PM 62.6 °F 60.8 °F 94% 29.81 in 7.0 mi South 3.5 mph - 0.04 in Rain Light Rain
10:56 PM 61.0 °F 59.0 °F 93% 29.80 in 10.0 mi Calm Calm - 0.05 in   Overcast
11:52 PM 60.8 °F 59.0 °F 94% 29.81 in 10.0 mi SE 5.8 mph - 0.00 in   Overcast
11:56 PM 61.0 °F 59.0 °F 93% 29.81 in 10.0 mi SE 3.5 mph - 0.00 in   Overcast